DELTA 1 DEB, 10768

Orbit data source: Space-Track

DELTA 1 DEB, 10768 is space debris in SSO originally from a launch on Thu, 29 Jul 1976 UTC launched from the Air Force Western Test Range (AFWTR). Debris objects in space refer to the collection of defunct objects orbiting the Earth. Examples of debris include non-operational satellites, rocket bodies, and fragments generated from explosions, collisions, or faulty payload assembly.

Loading next visibility...
Identifier
10768, 1976-077BR
Orbit
SSO
Country
Flag of USUS
Related business
Manufacturer
Unknown
Mission
Spacecraft
Bus & Motor
Unknown
Mass
Unknown
Launch date (UTC)
1976-07-29 (49 years ago)
Launch vehicle
Unknown
Launch site
Air Force Western Test Range (AFWTR)
Object type
Payload
Rocket body
Debris
Shape & HBR
Unknown shape, 0.1 m
Radar Cross Section
Small (<0.1 m²)

Expand to show TLE details & history
Last TLE update: 1 day ago

TLE from 1 day ago
0 DELTA 1 DEB
1 10768U 76077BR  25301.01066912  .00000122  00000-0  14417-2 0  9999
2 10768 102.3735  11.2489 0072497   7.7209 172.9902 12.28547489207654
Epoch: 2025-10-28T00:15Z
TLE epoch observation values (Epoch: 2025-10-28T00:15:21.811Z)
Latitude
-0.90023°
Longitude
150.60717°
Altitude
1,615.27 km
Speed
7.037 km/s
True Right ascension
12h 44m 12s
True Declination
0° 53' 44"
Sunlit
Object was in daylight at epoch
Visualization orbit readout
Latitude
Unknown
Longitude
Unknown
Altitude
Unknown
Speed
Unknown
Apparent Right ascension
Unknown
Apparent Declination
Unknown
Sunlit
N/A
Visualization observer readout
Local Sidereal Time
05:12:03
Azimuth
Unknown
Elevation
Unknown
Doppler factor
Unknown
Orbital elements
Apogee altitude
1,610.64 km
Perigee altitude
1,495.641 km
Semi-major axis
7,931.277 km
Eccentricity
0.00725
Inclination
102.3735°
RAAN
11.2489°
Arg. of periapsis
7.7209°
True anomaly
173.09068°
Mean anomaly
172.9902°
Eccentric anomaly
173.04053°
Mean motion
3.07276 °/min
Orbital period
117.16 mins
BSTAR
0.0014417
Loading maneuver chart data...
Computing Atmospheric mass density...
Loading historical data...
Loading historical data...
Loading historical data...
Loading historical data...
Loading historical data...
Loading historical data...
Loading historical data...

Documentation

Showing up to 5 results
|